�N����,����,�~����,�C��,���x,�C��,����,���ϕ���,�ő�u�ԕ���,�ő厞����,���˗�,�I�_���x,�n�����x,�ő啗���N��,DTYPE
"20/10/23","00:10",0.0,18.0,95.1,1003.4,301.9,1.6,2.8,326.2,0.00,17.2,18.3,"00:08:16",1
"20/10/23","00:20",0.0,17.9,95.2,1003.6,276.2,1.5,3.3,331.6,0.00,17.2,18.4,"00:11:20",1
"20/10/23","00:30",0.2,18.0,95.3,1003.6,298.5,1.7,2.6,332.8,0.00,17.3,18.2,"00:29:36",1
"20/10/23","00:40",0.2,17.9,95.3,1003.6,299.7,1.2,2.7,327.0,0.00,17.2,18.4,"00:30:32",1
"20/10/23","00:50",0.0,17.8,95.4,1003.1,305.2,1.1,1.8,335.6,0.00,17.1,18.5,"00:49:46",1
"20/10/23","01:00",0.2,17.9,95.5,1003.1,313.0,1.3,2.0,323.7,0.00,17.2,18.4,"00:56:40",1
"20/10/23","01:10",0.4,17.8,95.5,1002.9,299.6,1.3,2.0,312.4,0.00,17.1,18.4,"01:06:52",1
"20/10/23","01:20",0.4,17.8,95.5,1002.9,294.8,1.3,1.9,318.6,0.00,17.1,18.4,"01:10:40",1
"20/10/23","01:30",0.6,17.8,95.6,1002.9,298.7,1.1,1.6,320.1,0.00,17.1,18.5,"01:22:02",1
"20/10/23","01:40",0.2,17.8,95.7,1002.2,306.8,0.8,1.7,307.1,0.00,17.1,18.3,"01:35:16",1
"20/10/23","01:50",0.6,17.8,95.7,1002.2,287.1,1.1,1.6,313.5,0.00,17.1,18.3,"01:48:52",1
"20/10/23","02:00",0.6,17.8,95.7,1002.2,295.0,1.2,1.6,258.6,0.00,17.1,18.4,"01:51:16",1
"20/10/23","02:10",0.6,17.8,95.8,1001.9,318.5,1.2,2.1,334.5,0.00,17.2,18.2,"02:00:08",1
"20/10/23","02:20",1.0,17.8,95.9,1001.9,289.7,1.1,1.8,319.4,0.00,17.2,18.4,"02:19:34",1
"20/10/23","02:30",0.8,18.0,95.9,1001.5,305.1,1.6,3.3,329.1,0.00,17.4,18.3,"02:22:08",1
"20/10/23","02:40",1.0,17.9,95.9,1001.5,311.1,1.1,2.0,329.9,0.00,17.3,18.2,"02:31:08",1
"20/10/23","02:50",0.6,17.9,96.0,1001.2,306.4,0.8,1.4,315.3,0.00,17.3,18.4,"02:44:22",1
"20/10/23","03:00",0.6,17.9,96.0,1001.2,266.9,1.0,1.7,270.1,0.00,17.3,18.4,"02:58:58",1
"20/10/23","03:10",0.6,17.9,96.0,1001.2,275.5,1.1,1.8,275.7,0.00,17.3,18.3,"03:07:28",1
"20/10/23","03:20",1.0,17.9,96.1,1001.0,317.6,1.2,2.0,311.1,0.00,17.3,18.5,"03:13:44",1
"20/10/23","03:30",0.6,17.8,96.1,1001.0,279.7,0.8,1.2,343.3,0.00,17.2,18.4,"03:20:16",1
"20/10/23","03:40",0.4,17.8,96.1,1001.0,275.6,1.0,1.4,321.5,0.00,17.2,18.5,"03:39:28",1
"20/10/23","03:50",0.6,17.8,96.2,1000.8,298.3,0.7,1.4,317.0,0.00,17.2,18.3,"03:40:24",1
"20/10/23","04:00",0.8,17.8,96.3,999.8,79.7,0.3,0.9,114.9,0.00,17.2,18.1,"03:54:08",1
"20/10/23","04:10",0.6,17.8,96.3,1000.0,243.9,0.3,0.5,355.9,0.00,17.2,18.4,"04:00:32",1
"20/10/23","04:20",0.8,17.8,96.3,1000.0,267.3,0.7,1.0,242.9,0.00,17.2,18.2,"04:12:40",1
"20/10/23","04:30",0.8,17.8,96.4,1000.0,265.4,0.6,1.2,322.0,0.00,17.3,18.3,"04:29:52",1
"20/10/23","04:40",0.6,17.8,96.4,999.8,327.1,1.2,1.6,338.8,0.00,17.3,18.4,"04:33:12",1
"20/10/23","04:50",0.6,17.8,96.4,1000.5,266.4,0.8,1.6,248.2,0.00,17.3,18.3,"04:49:12",1
"20/10/23","05:00",0.4,17.8,96.5,1000.8,282.2,0.7,1.4,274.7,0.00,17.3,18.2,"04:51:52",1
"20/10/23","05:10",0.6,17.8,96.5,1000.5,315.8,0.3,1.0,320.8,0.00,17.3,18.4,"05:02:56",1
"20/10/23","05:20",1.0,17.8,96.5,1000.3,319.7,0.7,1.2,330.1,0.00,17.3,18.3,"05:14:56",1
"20/10/23","05:30",0.6,17.8,96.5,1000.3,280.5,0.8,1.0,283.5,0.00,17.3,18.4,"05:23:28",1
"20/10/23","05:40",0.6,17.8,96.5,1000.0,291.7,0.8,1.1,253.8,0.00,17.3,18.3,"05:32:00",1
"20/10/23","05:50",0.8,17.8,96.6,1000.3,300.9,1.1,1.6,324.5,0.00,17.3,18.3,"05:40:02",1
"20/10/23","06:00",0.6,17.8,96.6,1000.3,307.1,1.3,1.9,314.9,0.00,17.3,18.3,"05:54:16",1
"20/10/23","06:10",0.4,17.9,96.7,1000.5,315.9,1.2,2.1,333.5,0.00,17.4,18.3,"06:09:52",1
"20/10/23","06:20",1.0,17.9,96.7,1000.3,335.9,1.2,2.2,338.1,0.00,17.4,18.4,"06:12:32",1
"20/10/23","06:30",0.8,17.8,96.7,1000.5,300.1,0.5,1.2,351.5,0.00,17.3,18.4,"06:20:08",1
"20/10/23","06:40",0.6,17.8,96.7,999.8,257.1,0.2,0.8,299.6,0.00,17.3,18.3,"06:37:20",1
"20/10/23","06:50",0.4,17.8,96.8,1000.3,251.4,0.8,1.1,249.8,0.00,17.3,18.3,"06:42:48",1
"20/10/23","07:00",0.6,17.9,96.8,1000.8,251.1,1.0,1.6,245.7,0.00,17.4,18.2,"06:57:36",1
"20/10/23","07:10",0.4,17.9,96.8,1000.5,322.3,0.7,1.2,321.2,0.00,17.4,18.4,"07:03:44",1
"20/10/23","07:20",0.8,17.9,96.9,1000.3,317.3,0.7,1.1,320.7,0.00,17.4,18.2,"07:13:52",1
"20/10/23","07:30",0.6,17.9,96.9,1000.8,324.2,1.2,1.7,321.5,0.00,17.4,18.3,"07:25:52",1
"20/10/23","07:40",0.4,17.9,96.9,1001.0,294.6,1.0,1.7,320.8,0.00,17.4,18.3,"07:30:08",1
"20/10/23","07:50",0.6,18.0,96.9,1001.0,281.0,0.6,0.8,307.2,0.00,17.5,18.3,"07:49:14",1
"20/10/23","08:00",0.8,18.0,96.9,1000.5,311.3,0.6,1.1,325.1,0.00,17.5,18.3,"07:52:00",1
"20/10/23","08:10",1.0,18.1,96.9,1000.5,319.2,1.1,1.9,324.7,0.00,17.6,18.2,"08:04:40",1
"20/10/23","08:20",0.6,18.1,97.0,1000.5,286.8,0.8,1.8,313.0,0.00,17.7,18.4,"08:18:08",1
"20/10/23","08:30",0.4,18.1,97.0,1000.8,320.9,0.7,1.7,325.8,0.00,17.7,18.4,"08:20:08",1
"20/10/23","08:40",0.4,18.1,97.0,1001.0,314.2,1.1,1.9,330.8,0.00,17.7,18.3,"08:38:48",1
"20/10/23","08:50",0.6,18.2,97.0,1001.0,306.9,1.1,1.7,317.3,0.00,17.8,18.2,"08:46:24",1
"20/10/23","09:00",0.4,18.2,97.0,1000.3,304.4,1.2,3.5,311.0,0.01,17.8,18.4,"08:58:32",1
"20/10/23","09:10",0.2,17.5,97.2,1000.5,320.6,2.1,3.4,327.8,0.04,17.1,18.6,"09:06:24",1
"20/10/23","09:20",0.4,17.4,97.3,1000.5,302.6,2.1,4.9,341.5,0.06,17.0,18.4,"09:17:44",1
"20/10/23","09:30",0.0,17.5,97.4,1001.0,296.8,1.7,3.1,318.8,0.07,17.1,18.3,"09:25:12",1
"20/10/23","09:40",0.0,17.0,97.4,1000.8,322.8,2.2,4.3,339.3,0.06,16.6,18.4,"09:34:26",1
"20/10/23","09:50",0.4,16.9,97.4,1001.0,312.8,1.8,4.0,329.6,0.04,16.5,18.5,"09:46:26",1
"20/10/23","10:00",0.2,16.7,97.5,1001.2,333.3,2.2,3.7,323.9,0.05,16.3,18.3,"09:55:52",1
"20/10/23","10:10",0.2,16.5,97.5,1001.0,313.3,2.1,4.4,345.0,0.04,16.1,18.3,"10:09:22",1
"20/10/23","10:20",0.4,16.6,97.5,1001.0,309.4,1.6,4.2,350.5,0.04,16.2,18.4,"10:10:24",1
"20/10/23","10:30",0.2,16.5,97.5,1001.0,322.4,1.5,4.1,339.8,0.04,16.1,18.5,"10:26:08",1
"20/10/23","10:40",0.2,16.7,97.5,1001.2,298.8,1.1,2.0,342.9,0.07,16.3,18.6,"10:30:24",1
"20/10/23","10:50",0.2,16.6,97.6,1001.0,330.4,1.1,2.7,326.4,0.05,16.3,18.4,"10:46:32",1
"20/10/23","11:00",0.0,16.5,97.4,1000.8,295.3,1.0,2.7,336.8,0.05,16.1,18.6,"10:58:56",1
"20/10/23","11:10",0.2,16.6,97.5,1001.0,324.0,1.0,1.9,323.2,0.07,16.2,18.4,"11:00:32",1
"20/10/23","11:20",0.2,17.0,97.4,1000.8,274.5,0.7,1.6,333.4,0.09,16.6,18.5,"11:19:44",1
"20/10/23","11:30",0.0,16.8,97.4,1000.3,325.1,1.7,3.5,345.6,0.16,16.4,18.5,"11:26:32",1
"20/10/23","11:40",0.0,17.1,97.4,1000.5,330.4,1.3,2.7,343.9,0.18,16.7,18.3,"11:37:36",1
"20/10/23","11:50",0.0,17.7,97.2,1000.3,302.8,0.8,2.0,353.5,0.16,17.3,18.6,"11:42:48",1
"20/10/23","12:00",0.0,17.1,96.7,1000.5,343.1,1.7,4.7,341.2,0.15,16.6,18.4,"11:52:56",1
"20/10/23","12:10",0.0,17.0,96.4,1000.3,337.1,1.3,3.2,344.0,0.14,16.5,18.6,"12:09:12",1
"20/10/23","12:20",0.0,16.9,95.9,1000.3,331.6,2.5,5.5,329.7,0.10,16.3,18.7,"12:13:52",1
"20/10/23","12:30",0.0,17.5,95.7,1000.3,307.0,1.2,2.5,347.4,0.11,16.8,18.7,"12:24:08",1
"20/10/23","12:40",0.0,17.4,94.7,999.8,276.9,1.5,2.6,333.8,0.18,16.6,18.8,"12:35:04",1
"20/10/23","12:50",0.0,17.5,93.6,999.3,319.6,1.5,3.6,326.7,0.16,16.5,19.0,"12:43:52",1
"20/10/23","13:00",0.0,17.8,92.5,1000.0,332.5,2.1,6.0,336.7,0.19,16.6,18.7,"12:57:52",1
"20/10/23","13:10",0.0,18.6,89.6,999.8,302.5,1.2,3.1,230.2,0.26,16.9,19.1,"13:04:00",1
"20/10/23","13:20",0.0,19.1,84.3,999.6,318.0,2.6,6.3,342.1,0.36,16.4,19.1,"13:13:04",1
"20/10/23","13:30",0.0,20.2,75.7,999.8,319.5,2.7,5.2,325.9,0.53,15.8,19.3,"13:24:24",1
"20/10/23","13:40",0.0,20.6,70.6,999.6,328.5,3.1,11.0,343.0,0.55,15.1,19.2,"13:38:56",1
"20/10/23","13:50",0.0,21.2,69.3,999.1,291.9,1.8,5.0,341.3,0.49,15.4,19.6,"13:40:08",1
"20/10/23","14:00",0.0,21.5,67.5,998.9,304.6,1.6,4.1,349.1,0.46,15.3,19.6,"13:50:08",1
"20/10/23","14:10",0.0,21.3,65.9,999.1,282.9,1.8,5.4,260.3,0.39,14.7,19.8,"14:09:36",1
"20/10/23","14:20",0.0,21.0,67.3,998.9,323.0,1.7,5.0,17.8,0.30,14.8,19.7,"14:15:52",1
"20/10/23","14:30",0.0,20.4,68.5,999.1,332.5,2.3,7.8,346.6,0.24,14.5,20.0,"14:24:32",1
"20/10/23","14:40",0.0,20.5,69.0,998.9,305.2,2.1,4.5,334.8,0.26,14.7,20.1,"14:36:24",1
"20/10/23","14:50",0.0,20.5,69.3,998.9,309.3,2.1,5.1,342.2,0.23,14.7,19.9,"14:40:02",1
"20/10/23","15:00",0.0,20.1,69.8,999.1,311.4,2.0,5.4,337.6,0.13,14.5,20.1,"14:58:16",1
"20/10/23","15:10",0.0,19.7,70.9,999.6,332.6,2.0,7.3,329.1,0.08,14.3,19.8,"15:05:28",1
"20/10/23","15:20",0.0,20.0,71.5,999.3,328.9,2.1,4.3,345.8,0.18,14.7,19.7,"15:12:24",1
"20/10/23","15:30",0.0,19.9,71.2,999.6,344.3,2.2,4.7,352.7,0.15,14.6,19.8,"15:28:40",1
"20/10/23","15:40",0.0,19.6,71.2,999.6,347.6,2.3,4.7,335.8,0.12,14.3,19.9,"15:30:24",1
"20/10/23","15:50",0.0,19.4,71.7,1000.0,350.2,2.2,5.0,345.0,0.11,14.2,20.0,"15:41:04",1
"20/10/23","16:00",0.0,19.1,71.2,1000.0,345.8,2.5,6.0,347.1,0.07,13.8,19.7,"15:55:44",1
"20/10/23","16:10",0.0,18.7,71.5,1000.0,342.6,2.7,8.0,341.8,0.04,13.5,19.8,"16:00:56",1
"20/10/23","16:20",0.0,18.3,72.3,1000.5,333.0,2.1,3.9,339.6,0.02,13.3,19.7,"16:12:24",1
"20/10/23","16:30",0.0,18.4,72.5,1000.5,325.1,1.8,4.3,359.5,0.03,13.4,19.5,"16:23:04",1
"20/10/23","16:40",0.0,18.1,72.8,1000.5,329.7,1.7,3.7,349.5,0.02,13.2,19.6,"16:37:20",1
"20/10/23","16:50",0.0,17.8,71.8,1000.5,308.2,2.1,4.9,344.8,0.00,12.7,19.3,"16:46:24",1
"20/10/23","17:00",0.0,17.6,71.5,1000.8,310.6,2.1,4.0,344.2,0.00,12.4,19.4,"16:52:48",1
"20/10/23","17:10",0.0,17.4,72.3,1000.8,314.9,2.5,4.4,313.8,0.00,12.4,19.2,"17:01:28",1
"20/10/23","17:20",0.0,17.1,71.9,1000.8,315.7,2.8,5.2,334.0,0.00,12.0,19.1,"17:18:24",1
"20/10/23","17:30",0.0,17.0,71.5,1001.0,316.9,3.0,6.7,337.3,0.00,11.9,18.9,"17:29:28",1
"20/10/23","17:40",0.0,16.7,71.0,1001.5,324.7,3.0,6.0,346.7,0.00,11.5,18.9,"17:38:16",1
"20/10/23","17:50",0.0,16.7,70.2,1001.7,323.1,4.0,7.2,332.7,0.00,11.3,18.8,"17:48:40",1
"20/10/23","18:00",0.0,16.5,69.9,1001.7,313.8,3.5,6.3,328.8,0.00,11.0,18.7,"17:52:26",1
"20/10/23","18:10",0.0,16.2,70.6,1001.9,322.8,3.0,5.8,338.2,0.00,10.9,18.6,"18:02:24",1
"20/10/23","18:20",0.0,16.0,70.7,1002.2,326.4,3.4,5.5,339.6,0.00,10.7,18.7,"18:16:48",1
"20/10/23","18:30",0.0,16.0,70.3,1002.4,316.0,3.1,6.5,336.1,0.00,10.6,18.3,"18:20:32",1
"20/10/23","18:40",0.0,15.8,70.2,1002.4,300.5,2.3,4.7,332.7,0.00,10.4,18.2,"18:36:32",1
"20/10/23","18:50",0.0,15.8,69.2,1002.4,313.4,3.9,7.5,315.6,0.00,10.2,18.2,"18:44:40",1
"20/10/23","19:00",0.0,15.6,68.5,1002.6,319.3,2.7,6.7,337.0,0.00,9.9,18.2,"18:51:36",1
"20/10/23","19:10",0.0,15.4,68.1,1002.9,316.0,2.2,6.0,334.3,0.00,9.6,18.1,"19:04:40",1
"20/10/23","19:20",0.0,15.1,68.7,1002.9,278.5,1.1,2.0,322.5,0.00,9.4,18.1,"19:10:08",1
"20/10/23","19:30",0.0,14.9,70.7,1002.9,272.2,1.3,2.2,266.2,0.00,9.7,18.1,"19:23:28",1
"20/10/23","19:40",0.0,14.6,72.3,1002.9,283.6,1.3,3.2,234.3,0.00,9.7,17.7,"19:39:20",1
"20/10/23","19:50",0.0,14.4,73.6,1002.9,279.4,1.1,1.8,321.4,0.00,9.8,18.0,"19:41:52",1
"20/10/23","20:00",0.0,14.2,74.6,1002.9,265.1,1.3,2.2,233.3,0.00,9.8,17.9,"19:55:28",1
"20/10/23","20:10",0.0,14.2,74.9,1003.1,273.0,1.3,2.0,267.9,0.00,9.9,17.7,"20:07:36",1
"20/10/23","20:20",0.0,14.3,74.8,1002.9,289.5,1.2,2.4,241.7,0.00,9.9,17.6,"20:12:00",1
"20/10/23","20:30",0.0,13.9,75.5,1002.9,286.0,1.3,2.2,246.5,0.00,9.7,17.5,"20:28:22",1
"20/10/23","20:40",0.0,14.1,75.7,1003.1,279.4,1.5,3.7,236.7,0.00,9.9,17.4,"20:33:28",1
"20/10/23","20:50",0.0,14.1,75.9,1002.9,273.1,1.2,2.1,306.6,0.00,10.0,17.5,"20:47:24",1
"20/10/23","21:00",0.0,14.1,75.8,1002.6,272.4,1.5,3.1,235.4,0.00,9.9,17.2,"20:52:00",1
"20/10/23","21:10",0.0,14.2,75.7,1003.1,269.1,1.6,4.4,229.6,0.00,10.0,17.4,"21:04:34",1
"20/10/23","21:20",0.0,14.2,75.7,1002.9,278.3,1.6,3.1,314.0,0.00,10.0,17.2,"21:13:28",1
"20/10/23","21:30",0.0,13.8,76.7,1002.9,292.2,1.5,3.2,236.1,0.00,9.8,17.2,"21:28:34",1
"20/10/23","21:40",0.0,14.1,77.4,1002.9,274.5,1.5,3.4,325.6,0.00,10.3,17.3,"21:33:52",1
"20/10/23","21:50",0.0,14.2,77.1,1002.9,264.5,1.6,3.9,243.5,0.00,10.3,17.3,"21:43:28",1
"20/10/23","22:00",0.0,14.2,76.7,1002.9,280.8,1.6,2.9,249.9,0.00,10.2,17.2,"21:52:56",1
"20/10/23","22:10",0.0,14.2,76.8,1003.4,277.0,1.6,2.7,254.0,0.00,10.2,17.0,"22:05:36",1
"20/10/23","22:20",0.0,14.3,76.9,1003.1,278.9,2.0,3.7,273.5,0.00,10.3,17.2,"22:14:42",1
"20/10/23","22:30",0.0,14.2,77.1,1003.1,283.1,1.7,3.2,317.7,0.00,10.3,17.2,"22:28:00",1
"20/10/23","22:40",0.0,14.1,77.5,1002.9,316.6,1.7,3.7,16.1,0.00,10.3,17.2,"22:33:10",1
"20/10/23","22:50",0.0,14.0,78.4,1003.6,294.2,1.7,2.9,309.0,0.00,10.3,17.1,"22:45:20",1
"20/10/23","23:00",0.0,14.1,78.8,1003.4,271.2,1.6,3.6,231.2,0.00,10.5,16.9,"22:53:44",1
"20/10/23","23:10",0.0,14.2,78.9,1003.4,282.1,1.8,4.7,233.5,0.00,10.6,17.0,"23:02:32",1
"20/10/23","23:20",0.0,14.1,79.1,1003.4,280.2,1.6,3.5,212.6,0.00,10.6,16.9,"23:12:26",1
"20/10/23","23:30",0.0,14.0,79.4,1003.4,289.8,1.2,2.9,310.0,0.00,10.5,16.9,"23:22:18",1
"20/10/23","23:40",0.0,13.9,79.9,1003.6,280.8,1.5,4.2,237.1,0.00,10.5,16.8,"23:35:48",1
"20/10/23","23:50",0.0,13.7,80.3,1003.4,300.8,0.7,1.6,255.0,0.00,10.4,16.8,"23:42:24",1
"20/10/23","24:00",0.0,13.4,80.9,1003.8,300.8,1.2,2.0,330.3,0.00,10.2,16.9,"23:54:30",1
